TimeEST,TemperatureF,Dew PointF,Humidity,Sea Level PressureIn,VisibilityMPH,Wind Direction,Wind SpeedMPH,Gust SpeedMPH,PrecipitationIn,Events,Conditions,WindDirDegrees,DateUTC
12:51 AM,25.0,19.0,78,30.12,10.0,Calm,Calm,-,N/A,,Clear,0,2013-02-25 05:51:00
1:51 AM,25.0,19.0,78,30.12,10.0,Calm,Calm,-,N/A,,Clear,0,2013-02-25 06:51:00
2:51 AM,21.9,18.0,85,30.12,10.0,Calm,Calm,-,N/A,,Clear,0,2013-02-25 07:51:00
3:51 AM,21.9,17.1,82,30.13,10.0,Calm,Calm,-,N/A,,Clear,0,2013-02-25 08:51:00
4:51 AM,19.9,17.1,89,30.14,10.0,Calm,Calm,-,N/A,,Clear,0,2013-02-25 09:51:00
5:51 AM,21.9,17.1,82,30.13,10.0,Calm,Calm,-,N/A,,Clear,0,2013-02-25 10:51:00
6:51 AM,21.9,17.1,82,30.12,10.0,Calm,Calm,-,N/A,,Clear,0,2013-02-25 11:51:00
7:51 AM,21.9,19.0,89,30.17,8.0,Calm,Calm,-,N/A,,Clear,0,2013-02-25 12:51:00
8:51 AM,26.1,21.0,81,30.17,10.0,Calm,Calm,-,N/A,,Clear,0,2013-02-25 13:51:00
9:51 AM,30.0,21.0,69,30.16,10.0,ESE,6.9,-,N/A,,Clear,120,2013-02-25 14:51:00
10:51 AM,34.0,19.9,56,30.15,10.0,SSE,10.4,-,N/A,,Clear,150,2013-02-25 15:51:00
11:51 AM,35.1,21.0,57,30.17,10.0,South,9.2,-,N/A,,Clear,170,2013-02-25 16:51:00
12:51 PM,37.9,21.0,51,30.12,10.0,East,9.2,-,N/A,,Clear,100,2013-02-25 17:51:00
1:51 PM,41.0,21.9,47,30.09,10.0,East,8.1,-,N/A,,Clear,90,2013-02-25 18:51:00
2:51 PM,42.1,23.0,47,30.09,10.0,Variable,5.8,-,N/A,,Clear,0,2013-02-25 19:51:00
3:51 PM,44.1,23.0,43,30.07,10.0,SE,8.1,-,N/A,,Clear,130,2013-02-25 20:51:00
4:51 PM,44.1,23.0,43,30.07,10.0,ESE,9.2,-,N/A,,Clear,120,2013-02-25 21:51:00
5:51 PM,41.0,21.9,47,30.07,10.0,SE,9.2,-,N/A,,Clear,130,2013-02-25 22:51:00
6:51 PM,37.9,21.9,53,30.08,10.0,ESE,8.1,-,N/A,,Clear,120,2013-02-25 23:51:00
7:51 PM,37.0,21.9,54,30.09,10.0,SE,10.4,-,N/A,,Clear,130,2013-02-26 00:51:00
8:51 PM,35.1,21.9,59,30.06,10.0,ESE,8.1,17.3,N/A,,Clear,110,2013-02-26 01:51:00
9:51 PM,33.1,21.0,61,30.05,10.0,SE,10.4,20.7,N/A,,Clear,130,2013-02-26 02:51:00
10:51 PM,33.1,19.9,59,30.05,10.0,SE,13.8,19.6,N/A,,Clear,130,2013-02-26 03:51:00
11:51 PM,32.0,19.9,61,30.03,10.0,ESE,13.8,23.0,N/A,,Clear,120,2013-02-26 04:51:00